DB0TGO-13 Weather Reports


time (UTC)temp
C
wind
direction
speed
KPH
gust
KPH
rain 1hr
cm
rain 24hr
cm
rain mn
cm
humidity
%
barometer
mb
20260508181502 12 80 9.7 0.0 0.00 0.00 0.00 61 1014.5
20260508180002 12 70 9.7 0.0 0.00 0.00 0.00 61 1014.5
20260508174502 12 70 9.7 0.0 0.00 0.00 0.00 60 1014.4
20260508173002 12 70 9.7 0.0 0.00 0.00 0.00 60 1014.4
20260508171502 12 60 9.7 0.0 0.00 0.00 0.00 62 1014.4
20260508170002 12 60 9.7 0.0 0.00 0.00 0.00 62 1014.4
20260508164502 13 70 6.4 0.0 0.00 0.00 0.00 60 1014.3
20260508163002 13 70 6.4 0.0 0.00 0.00 0.00 60 1014.3
20260508161503 12 70 6.4 0.0 0.00 0.00 0.00 58 1014.3
20260508160003 12 50 4.8 0.0 0.00 0.00 0.00 58 1014.3
20260508154503 12 50 4.8 0.0 0.00 0.00 0.00 60 1014.4
20260508153002 12 50 11.3 0.0 0.00 0.00 0.00 60 1014.4
20260508151503 12 50 11.3 0.0 0.00 0.00 0.00 57 1014.4
20260508150003 12 60 9.7 0.0 0.00 0.00 0.00 57 1014.4
20260508144502 13 30 4.8 0.0 0.00 0.00 0.00 55 1014.5
20260508143002 13 30 4.8 0.0 0.00 0.00 0.00 55 1014.5
20260508140003 12 30 3.2 0.0 0.00 0.00 0.00 60 1014.9
20260508134502 12 30 3.2 0.0 0.00 0.00 0.00 60 1014.9
20260508133002 12 30 3.2 0.0 0.00 0.00 0.00 60 1014.9
20260508131502 12 60 1.6 0.0 0.00 0.00 0.00 59 1015.1
20260508130002 12 60 1.6 0.0 0.00 0.00 0.00 59 1015.1
20260508124502 12 350 3.2 0.0 0.00 0.00 0.00 63 1015.0
20260508123002 12 350 3.2 0.0 0.00 0.00 0.00 63 1015.0
20260508121502 11 80 6.4 0.0 0.00 0.00 0.00 64 1015.2
20260508120002 11 80 6.4 0.0 0.00 0.00 0.00 64 1015.2
20260508114502 11 80 6.4 0.0 0.00 0.00 0.00 65 1015.2
20260508113002 11 40 8.0 0.0 0.00 0.00 0.00 65 1015.2
20260508111502 11 40 8.0 0.0 0.00 0.00 0.00 67 1015.2
20260508110002 11 80 8.0 0.0 0.00 0.00 0.00 67 1015.2
20260508104502 10 80 9.7 0.0 0.00 0.00 0.00 69 1015.2
20260508103002 10 80 9.7 0.0 0.00 0.00 0.00 69 1015.2
20260508101502 10 80 9.7 0.0 0.00 0.00 0.00 66 1015.2
20260508100002 10 90 8.0 0.0 0.00 0.00 0.00 66 1015.2
20260508094502 10 90 8.0 0.0 0.00 0.00 0.00 64 1015.0
20260508093002 10 80 8.0 0.0 0.00 0.00 0.00 64 1015.0
20260508091502 10 80 8.0 0.0 0.00 0.00 0.00 72 1015.0
20260508090002 10 60 9.7 0.0 0.00 0.00 0.00 72 1015.0
20260508084503 10 60 8.0 0.0 0.00 0.00 0.00 70 1014.8
20260508083002 10 60 8.0 0.0 0.00 0.00 0.00 70 1014.8
20260508081502 9 60 11.3 0.0 0.00 0.00 0.00 73 1014.6
20260508080002 9 60 11.3 0.0 0.00 0.00 0.00 73 1014.6
20260508074502 9 60 11.3 0.0 0.00 0.00 0.00 77 1014.5
20260508073002 9 40 6.4 0.0 0.00 0.00 0.00 77 1014.5
20260508071502 8 40 6.4 0.0 0.00 0.00 0.00 78 1014.3
20260508070002 8 40 9.7 0.0 0.00 0.00 0.00 78 1014.3
20260508064503 7 40 9.7 0.0 0.00 0.00 0.00 81 1014.2
20260508063002 7 30 8.0 0.0 0.00 0.00 0.00 81 1014.2
20260508061502 7 30 8.0 0.0 0.00 0.00 0.00 80 1014.0
20260508060002 7 40 8.0 0.0 0.00 0.00 0.00 80 1014.0
20260508054502 7 40 6.4 0.0 0.00 0.00 0.00 84 1013.8
20260508053002 7 40 6.4 0.0 0.00 0.00 0.00 84 1013.8
20260508051502 7 40 8.0 0.0 0.00 0.00 0.00 83 1013.8
20260508050002 7 40 8.0 0.0 0.00 0.00 0.00 83 1013.8
20260508044502 6 40 8.0 0.0 0.00 0.00 0.00 85 1013.6
20260508043002 6 40 6.4 0.0 0.00 0.00 0.00 85 1013.6
20260508041502 6 40 9.7 0.0 0.00 0.00 0.00 84 1013.5
20260508040003 6 40 9.7 0.0 0.00 0.00 0.00 84 1013.5
20260508034502 7 40 6.4 0.0 0.00 0.00 0.00 85 1013.4
20260508033002 7 40 6.4 0.0 0.00 0.00 0.00 85 1013.4
20260508031502 7 30 6.4 0.0 0.00 0.00 0.00 86 1013.3
20260508030004 7 30 6.4 0.0 0.00 0.00 0.00 86 1013.3
20260507204502 8 250 1.6 0.0 0.00 0.00 0.00 88 1012.1
20260507203002 8 240 3.2 0.0 0.00 0.00 0.00 88 1012.1
20260507201502 8 240 3.2 0.0 0.00 0.00 0.00 88 1011.9
20260507200002 8 250 4.8 0.0 0.00 0.00 0.00 88 1011.9
20260507194502 8 250 4.8 0.0 0.00 0.00 0.00 88 1011.6
20260507193002 8 220 3.2 0.0 0.00 0.00 0.00 88 1011.6
20260507191502 8 210 4.8 0.0 0.00 0.00 0.00 86 1011.4
20260507190003 8 210 4.8 0.0 0.00 0.00 0.00 86 1011.4
20260507184502 8 210 4.8 0.0 0.00 0.00 0.00 84 1011.2
20260507183002 8 190 4.8 0.0 0.00 0.00 0.00 84 1011.2